Showing default

CONNECTA IOT-9, 64534

Orbit data source: Space-Track

CONNECTA IOT-9, 64534 is a payload satellite owned by Plan-S (TR) in SSO that was launched on Mon, 23 Jun 2025 UTC via an FALCON 9 launch vehicle from the Air Force Western Test Range (AFWTR). Payload-class satellites include a variety of spacecraft equipped with specific instruments for various scientific and technological missions. These include communications satellites like Starlink; space stations such as the ISS; scientific satellites like the Hubble; Earth observation satellites from companies like Planet Labs, Umbra, and HawkEye 360; GPS; miniature CubeSats for education and research; and military/defense satellites.

Loading next visibility...
Identifier
64534, 2025-135G
Orbit
SSO
Country
Flag of UnknownUnknown / TURK
Related business
Manufacturer
Plan-S
Mission
Operational Commercial Communications
Bus & Motor
CUBESAT 6U, Unknown motor
Mass
10 kg wet, 10 kg dry
Launch date (UTC)
2025-06-23 (5 months ago)
Launch vehicle
FALCON 9
Launch site
Air Force Western Test Range (AFWTR)
Object type
Payload
Rocket body
Debris
Shape & HBR
Box, 0.1 m
Radar Cross Section
0.080 m², Medium (>0.1 m² and < 1m²)

Expand to show TLE details & history
Last TLE update: 12 hours ago

TLE from 12 hours ago
0 CONNECTA IOT-9
1 64534U 25135G   25340.83991563  .00006691  00000-0  32800-3 0  9994
2 64534  97.4639  92.8178 0006416 111.0204 249.1717 15.18443676 25613
Epoch: 2025-12-06T20:09Z
TLE epoch observation values (Epoch: 2025-12-06T20:09:28.710Z)
Latitude
-0.00001°
Longitude
74.58629°
Altitude
515.205 km
Speed
7.605 km/s
True Right ascension
06h 11m 16s
True Declination
0° 00' 00"
Sunlit
Object was in full shadow at epoch
Visualization orbit readout
Latitude
Unknown
Longitude
Unknown
Altitude
Unknown
Speed
Unknown
Apparent Right ascension
Unknown
Apparent Declination
Unknown
Sunlit
N/A
Visualization observer readout
Local Sidereal Time
06:39:12
Azimuth
Unknown
Elevation
Unknown
Doppler factor
Unknown
Orbital elements
Apogee altitude
511.932 km
Perigee altitude
503.096 km
Semi-major axis
6,885.651 km
Eccentricity
0.00064
Inclination
97.4639°
RAAN
92.8178°
Arg. of periapsis
111.0204°
True anomaly
249.103°
Mean anomaly
249.1717°
Eccentric anomaly
249.13735°
Mean motion
3.79862 °/min
Orbital period
94.77 mins
BSTAR
0.000328
Loading maneuver chart data...
Computing Atmospheric mass density...
Loading historical data...
Loading historical data...
Loading historical data...
Loading historical data...
Loading historical data...
Loading historical data...
Loading historical data...

Documentation

Showing up to 5 results
|